Regional Weather Roundup
Issued by NWS

Home | Current Version | Previous Version | Text Only | Print | Product List | Glossary On
Versions: 1 2 3 4 5 6 7 8 9 10 11 12 13 14 15 16 17 18 19 20 21 22 23 24 25 26 27 28 29 30 31 32 33 34 35 36 37 38 39 40 41 42 43 44 45 46 47 48 49 50
000
ASUS45 KCYS 191510
RWRWY

WYOMING REGIONAL WEATHER ROUNDUP
NATIONAL WEATHER SERVICE CHEYENNE WY
900 AM MDT SUN APR 19 2015

NOTE:  "FAIR" INDICATES FEW OR NO CLOUDS BELOW 12,000 FEET
WITH NO SIGNIFICANT WEATHER AND/OR OBSTRUCTIONS TO VISIBILITY.

WYZ001-191600-
YELLOWSTONE NATIONAL PARK

CITY           SKY/WX    TMP DP  RH WIND       PRES   REMARKS
LK YELLOWSTONE   N/A     28  16  60 SE5       30.22F WCI  23
W YELLOWSTONE  NOT AVBL

$$
WYZ002>013-054>058-071-098>099-191600-
NORTHERN WYOMING

CITY           SKY/WX    TMP DP  RH WIND       PRES   REMARKS
JACKSON        SUNNY     36  21  55 N10       30.19F WCI  28
CODY           FAIR      37  27  65 CALM      30.23S
GREYBULL       FAIR      43  25  49 VRB5      30.23F
WORLAND        FAIR      43  26  51 NW12      30.23F
SHERIDAN       FAIR      41  25  53 NW22      30.21S
BUFFALO        FAIR      39  23  52 N21       30.18F WCI  29
GILLETTE       FAIR      38  24  57 NW22G28   30.17R WCI  27
HULETT         FAIR      37  25  60 NW17G28   30.14F WCI  28
NEWCASTLE      FAIR      36  23  60 NW20G26   30.14F WCI  25

$$
WYZ014>020-022>026-101>103-191600-
CENTRAL WYOMING

CITY           SKY/WX    TMP DP  RH WIND       PRES   REMARKS
BIG PINEY      CLOUDY    35  25  66 S10       30.21S WCI  27
PINEDALE       PTSUNNY   32  27  80 S7        30.21F WCI  26
DUBOIS         FAIR      32  23  69 E3        30.18F
LANDER         CLOUDY    36  26  67 SE7       30.21S WCI  30
RIVERTON       CLOUDY    41  21  44 N16       30.22S
CASPER         FAIR      36  28  73 S3        30.20F
DOUGLAS        FAIR      38  26  62 NW20      30.18F WCI  28

$$
WYZ021-027>030-104>119-191600-
SOUTHERN WYOMING

CITY           SKY/WX    TMP DP  RH WIND       PRES   REMARKS
EVANSTON       PTSUNNY   38  31  76 E8        30.17S WCI  32
KEMMERER       CLOUDY    36  30  80 E6        30.20R WCI  31
FORT BRIDGER   CLOUDY    37  32  81 E8        30.20S WCI  31
ROCK SPRINGS   CLOUDY    32  28  85 E10       30.21S WCI  24
DIXON          CLOUDY    36  23  58 NE7       30.23S WCI  31
RAWLINS        CLOUDY    34  23  64 NW9       30.20R WCI  27
SARATOGA       FAIR      32  27  80 MISG      30.19F
LARAMIE        FAIR      25  21  85 NW10      30.14S WCI  15
CHEYENNE       FAIR      33  21  61 N17G25    30.13S WCI  22
TORRINGTON     FAIR      41  24  51 N18G29    30.14S
PINE BLUFFS    FAIR      37  28  70 N24       30.13S WCI  26

$$


USA.gov is the U.S. government's official web portal to all federal, state and local government web resources and services.